Overview Statistics Trail Chart Weather Telemetry Raw packets
 

This is the latest recevied weather packets stored in our database for station/object WA9NNN-10. If no packets are shown the sender has not sent any weather packets the latest 10 day(s).

<< 55 56 57 58 59 60 61 >>
Time Temp. Humidity Pressure Rain* Wind** Luminosity Snow
1788212011 28.33° C 86% 1012.6 hPa 0.25 mm - - -
1788211711 28.33° C 87% 1012.4 hPa 0.25 mm - - -
1788211411 27.78° C 87% 1012.6 hPa 0.51 mm - - -
1788211112 27.78° C 87% 1012.7 hPa 0.51 mm - - -
1788210811 27.22° C 88% 1012.8 hPa 1.52 mm - - -
1788210511 27.22° C 87% 1013 hPa 1.78 mm - - -
1788210211 27.22° C 87% 1013.3 hPa 1.78 mm - - -
1788209911 26.67° C 86% 1013.5 hPa 1.78 mm - - -
1788209611 26.67° C 86% 1014.1 hPa 1.52 mm - - -
1788209311 27.22° C 86% 1013.8 hPa 1.78 mm - - -
1788209011 26.67° C 86% 1013.6 hPa 2.29 mm - - -
1788208711 26.67° C 86% 1013.6 hPa 2.29 mm - - -
1788208111 26.67° C 85% 1013.4 hPa 2.29 mm - - -
1788207811 26.67° C 85% 1013.1 hPa 3.05 mm - - -
1788207211 26.67° C 84% 1012.8 hPa 4.06 mm - - -
1788206911 26.67° C 83% 1012.7 hPa 3.81 mm - - -
1788206611 26.67° C 83% 1012.6 hPa 3.81 mm - - -
1788206311 26.67° C 81% 1012.4 hPa 3.81 mm - - -
1788206012 26.67° C 80% 1012.5 hPa 3.81 mm - - -
1788205711 27.22° C 78% 1012.8 hPa 3.3 mm - - -
1788205111 27.78° C 76% 1013.3 hPa 3.05 mm - - -
1788204813 28.33° C 74% 1012.9 hPa 3.05 mm - - -
1788204512 28.33° C 71% 1012.7 hPa 3.05 mm - - -
1788204211 28.89° C 69% 1012.8 hPa 2.03 mm - - -
1788203911 29.44° C 67% 1013 hPa 0.25 mm - - -

* Rain latest hour (hover to see other rain measurements)
** Current wind speed in m/s (hover to see current wind gust speed)